Regional Weather Roundup
Issued by NWS

Home | Current Version | Previous Version | Graphics & Text | Print | Product List | Glossary On
Versions: 1 2 3 4 5 6 7 8 9 10 11 12 13 14 15 16 17 18 19 20 21 22 23 24 25 26 27 28 29 30 31 32 33 34 35 36 37 38 39 40 41 42 43 44 45 46 47 48 49 50
000
ASUS43 KMKX 221220
RWRWI

WISCONSIN REGIONAL WEATHER ROUNDUP
NATIONAL WEATHER SERVICE MILWAUKEE/SULLIVAN WI
600 AM CST MON JAN 22 2018

NOTE: "FAIR" INDICATES FEW OR NO CLOUDS BELOW 12,000 FEET WITH NO
SIGNIFICANT WEATHER AND/OR OBSTRUCTIONS TO VISIBILITY.

WIZ001-002-006>008-014>016-023>028-221300-
NORTHWEST WISCONSIN

CITY           SKY/WX    TMP DP  RH WIND       PRES   REMARKS
SUPERIOR ARPT  CLOUDY    28  27  96 NE17G26   30.01F FOG     WCI  15
6HR MIN TEMP:  28; 6HR MAX TEMP:  30;

ASHLAND        LGT SNOW  29  28  96 NE17      30.00F FOG     WCI  17
6HR MIN TEMP:  29; 6HR MAX TEMP:  30; 6HR PCP: TRACE;

HAYWARD        CLOUDY    30  25  81 NE17G28   29.92S WCI  18
6HR MIN TEMP:  30; 6HR MAX TEMP:  31; 6HR PCP: TRACE;

SIREN          CLOUDY    30  26  84 NE14G22   29.91F WCI  19
6HR MIN TEMP:  30; 6HR MAX TEMP:  32;

CUMBERLAND     CLOUDY    30  27  86 NE16G23   29.85F WCI  19
RICE LAKE      CLOUDY    32  30  92 N16G23    29.86F WCI  21
6HR MIN TEMP:  32; 6HR MAX TEMP:  32;

CHETEK         CLOUDY    32  28  86 NE12G20   29.84F WCI  23
LADYSMITH      CLOUDY    32  29  88 NE16G22   29.87F WCI  22
6HR MIN TEMP:  32; 6HR MAX TEMP:  34;

EAU CLAIRE     CLOUDY    34  29  82 NE15G28   29.78F WCI  24
6HR MIN TEMP:  34; 6HR MAX TEMP:  37;

MENOMONIE      CLOUDY    35  31  84 N13G20    29.80F WCI  26
6HR MIN TEMP:  35; 6HR MAX TEMP:  38;

NEW RICHMOND   CLOUDY    32  28  84 NE16G22   29.83F WCI  21
6HR MIN TEMP:  32; 6HR MAX TEMP:  35;

OSCEOLA        CLOUDY    32  28  84 NE12G17   29.88F WCI  23
6HR MIN TEMP:  32; 6HR MAX TEMP:  34;

$$

WIZ003>005-009-010-017-018-221300-
NORTH CENTRAL WISCONSIN

CITY           SKY/WX    TMP DP  RH WIND       PRES   REMARKS
MANITOWISH WTR MIX PCPN  28  28 100 NE9G21    29.91S WCI  19
6HR MIN TEMP:  28; 6HR MAX TEMP:  30;

ARBOR VITAE    CLOUDY    32  30  94 NE9G18    29.89S WCI  24
6HR MIN TEMP:  32; 6HR MAX TEMP:  33;

WOODRUFF       CLOUDY    32  30  94 NE9G18    29.89S WCI  24
6HR MIN TEMP:  32; 6HR MAX TEMP:  33;

RHINELANDER    CLOUDY    31  30  96 E12G21    29.88F WCI  22
6HR MIN TEMP:  31; 6HR MAX TEMP:  33;

EAGLE RIVER    CLOUDY    29  29 100 NE13G20   29.89F WCI  19
6HR MIN TEMP:  29; 6HR MAX TEMP:  32;

LAND O LAKES   CLOUDY    29  28  97 NE7       29.94F WCI  22
6HR MIN TEMP:  29; 6HR MAX TEMP:  32;

PHILLIPS       CLOUDY    30  29  97 NE14      29.87S WCI  19
6HR MIN TEMP:  30; 6HR MAX TEMP:  31;

TOMAHAWK       CLOUDY    32  29  88 NE9G20    29.86F WCI  24
6HR MIN TEMP:  32; 6HR MAX TEMP:  33;

MEDFORD        CLOUDY    32  29  90 NE16      29.80F WCI  21
6HR MIN TEMP:  32; 6HR MAX TEMP:  34;

MERRILL        CLOUDY    33  31  92 NE13G18   29.84F WCI  24
6HR MIN TEMP:  33; 6HR MAX TEMP:  36;

$$

WIZ029-030-035-036-043>047-221300-
CENTRAL WISCONSIN

CITY           SKY/WX    TMP DP  RH WIND       PRES   REMARKS
WAUSAU         CLOUDY    34  30  85 NE10G26   29.80F WCI  26
6HR MIN TEMP:  34; 6HR MAX TEMP:  35;

MOSINEE        CLOUDY    34  32  93 NE16G23   29.81F FOG     WCI  23
MARSHFIELD     LGT RAIN  34  32  92 E16G25    29.76F FOG     WCI  24
6HR MIN TEMP:  34; 6HR MAX TEMP:  36; 6HR PCP: TRACE;

STEVENS POINT  LGT RAIN  32  32 100 NE17G25   29.80S WCI  21
6HR MIN TEMP:  32; 6HR MAX TEMP:  33;

WAUPACA        LGT RAIN  36  34  92 NE12G18   29.81S WCI  28
WAUTOMA        MIX PCPN  34  33  96 NE18G29   29.74F FOG     WCI  23
6HR MIN TEMP:  34; 6HR MAX TEMP:  35;

WISC RAPIDS    LGT RAIN  34  33  96 NE15G24   29.77F FOG     WCI  24
6HR MIN TEMP:  34; 6HR MAX TEMP:  36; 6HR PCP:  0.04;

CAMP DOUGLAS   LGT RAIN  35  34  99 NE9       29.72F FOG     WCI  27
6HR MIN TEMP:  35; 6HR MAX TEMP:  36; 6HR PCP:  0.14;

$$

WIZ011>013-019>022-031-037>040-048>050-221300-
NORTHEAST WISCONSIN

CITY           SKY/WX    TMP DP  RH WIND       PRES   REMARKS
ANTIGO         CLOUDY    31  31  96 NE20G25   29.84F WCI  19
6HR MIN TEMP:  31; 6HR MAX TEMP:  33;

SHAWANO        CLOUDY    35  32  89 NE15G22   29.85F FOG     WCI  25
6HR MIN TEMP:  35; 6HR MAX TEMP:  36;

OCONTO         CLOUDY    33  32  95 NE13G21   29.88F WCI  24
6HR MIN TEMP:  33; 6HR MAX TEMP:  34;

STURGEON BAY   CLOUDY    34  33  96 NE14      29.88S FOG     WCI  25
6HR MIN TEMP:  34; 6HR MAX TEMP:  35; 6HR PCP: TRACE;

GREEN BAY      RAIN      33  31  92 NE25G33   29.85R FOG     WCI  20
6HR MIN TEMP:  33; 6HR MAX TEMP:  33; 6HR PCP:  0.05;

MANITOWOC      RAIN      36  35  96 NE9       29.82R FOG     WCI  29
6HR MIN TEMP:  36; 6HR MAX TEMP:  36; 6HR PCP:  0.23;

APPLETON       LGT RAIN  34  34 100 NE18G30   29.78F WCI  23
CLINTONVILLE   CLOUDY    34  32  93 E16G22    29.83F FOG     WCI  23
OSHKOSH        LGT RAIN  33  32  96 NE22G30   29.75F FOG     WCI  21
6HR MIN TEMP:  33; 6HR MAX TEMP:  34; 6HR PCP:  0.27;

$$

WIZ032>034-041-042-053>061-221300-
SOUTHWEST WISCONSIN

CITY           SKY/WX    TMP DP  RH WIND       PRES   REMARKS
LA CROSSE      RAIN      38  35  89 NE14G25   29.70F FOG     WCI  30
6HR MIN TEMP:  38; 6HR MAX TEMP:  40; 6HR PCP:  0.18;

SPARTA         LGT RAIN  34  33  97 NE16G24   29.72F WCI  23
6HR MIN TEMP:  34; 6HR MAX TEMP:  37; 6HR PCP:  0.21;

VIROQUA        CLOUDY    35  35 100 E23G35    29.62F WCI  23
6HR MIN TEMP:  35; 6HR MAX TEMP:  37; 6HR PCP:  0.17;

BOSCOBEL       CLOUDY    37  35  92 NE10G21   29.64F WCI  30
6HR MIN TEMP:  37; 6HR MAX TEMP:  38; 6HR PCP:  0.24;

PRAIRIE DU CHI LGT RAIN  37  35  90 NE14G20   29.63F WCI  29
6HR MIN TEMP:  37; 6HR MAX TEMP:  38; 6HR PCP:  0.40;

PLATTEVILLE    CLOUDY    37  37 100 NE17      29.58S WCI  27
6HR MIN TEMP:  37; 6HR MAX TEMP:  37; 6HR PCP:  0.33;

$$

WIZ056-057-062-063-064-067-068-221300-
SOUTH CENTRAL WISCONSIN

CITY           SKY/WX    TMP DP  RH WIND       PRES   REMARKS
REEDSBURG      DRIZZLE   34  34 100 NE12G18   29.69F WCI  25
6HR MIN TEMP:  34; 6HR MAX TEMP:  35; 6HR PCP:  0.24;

BARABOO/DELLS  LGT RAIN  34  33  97 NE16G22   29.69F WCI  23
6HR MIN TEMP:  33; 6HR MAX TEMP:  35; 6HR PCP:  0.05;

LONE ROCK      CLOUDY    37  35  92 E13       29.66F WCI  29
6HR MIN TEMP:  37; 6HR MAX TEMP:  38; 6HR PCP:  0.32;

MINERAL POINT  CLOUDY    37  37 100 NE20G25   29.59F WCI  27
MADISON        LGT RAIN  36  35  96 E13G23    29.67F WCI  27
6HR MIN TEMP:  36; 6HR MAX TEMP:  37; 6HR PCP:  0.65;

MIDDLETON      CLOUDY    38  38 100 E6G17     29.69R WCI  33
6HR MIN TEMP:  37; 6HR MAX TEMP:  38; 6HR PCP:  0.38;

WATERTOWN      CLOUDY    37  37 100 E15       29.68F FOG     WCI  27
6HR MIN TEMP:  36; 6HR MAX TEMP:  37; 6HR PCP:  0.32;

MONROE         LGT RAIN  36  36 100 NE15      29.61F WCI  26
JANESVILLE     LGT RAIN  37  37 100 NE8       29.64F WCI  31
$$

WIZ051-052-058>065-066-070>072-221300-
SOUTHEAST WISCONSIN

CITY           SKY/WX    TMP DP  RH WIND       PRES   REMARKS
MILWAUKEE      DRZL/FOG  37  37 100 NE14      29.71F VSB 1/2 WCI  28
6HR MIN TEMP:  36; 6HR MAX TEMP:  38; 6HR PCP:  0.04;

WAUKESHA       FOG       36  36 100 NE13      29.71F VSB 1   WCI  27
MILWAUKEE/TIMM DRIZZLE   36  34  93 NE10      29.73F WCI  28
RACINE         HVY RAIN  38  38 100 NE10      29.71F FOG     WCI  31
6HR MIN TEMP:  37; 6HR MAX TEMP:  38; 6HR PCP:  0.10;

BURLINGTON     LGT SNOW  37  36  96 NE8       29.68F WCI  31
6HR MIN TEMP:  36; 6HR MAX TEMP:  37; 6HR PCP:  0.17;

KENOSHA        RAIN      40  38  93 NE12      29.65F FOG     WCI  33
6HR MIN TEMP:  38; 6HR MAX TEMP:  40; 6HR PCP:  0.16;

FOND DU LAC    CLOUDY    37  34  89 NE15      29.74F WCI  28
6HR MIN TEMP:  36; 6HR MAX TEMP:  37; 6HR PCP:  0.30;

SHEBOYGAN        N/A     36  36 100 NE18      29.76F FOG     WCI  26
WEST BEND      DRIZZLE   36  36 100 NE15G22   29.73F WCI  26
JUNEAU         CLOUDY    36  35  97 NE9       29.72R WCI  29
6HR MIN TEMP:  35; 6HR MAX TEMP:  36; 6HR PCP:  0.24;

$$

LSZ147-162-221300-
LAKE SUPERIOR

STATION/POSITION TIME  TEMP    WIND        PRES    WAVE
                       AIR SEA DIR/SP/G            HT/PER
                 (UTC) (F)     (DEG/KT/KT) (MB)    (FT/S)
DEVILS ISLAND    1200   27      60/ 22/ 23 1018.0F
SAXON HARBOR     1130   31      50/ 20/ 23 1015.2F
$$

LMZ867-665-643>646-221300-
LAKE MICHIGAN

STATION/POSITION TIME  TEMP    WIND        PRES    WAVE
                       AIR SEA DIR/SP/G            HT/PER
                 (UTC) (F)     (DEG/KT/KT) (MB)    (FT/S)
NORTHPORT PIER   1204   33      50/  2/  4 1012.9
KEWAUNEE LAKESHO 1154   35      30/ 15/ 23 1010.0F
SHEBOYGAN LAKESH 1200   36      40/ 18/ 20 1008.7F
PORT WASHING


USA.gov is the U.S. government's official web portal to all federal, state and local government web resources and services.